CZ-4B DEB, 37580

Orbit data source: Space-Track

CZ-4B DEB, 37580 is space debris in SSO originally from a launch on Mon, 10 May 1999 UTC launched from the Taiyaun Space Center, China (TSC). Debris objects in space refer to the collection of defunct objects orbiting the Earth. Examples of debris include non-operational satellites, rocket bodies, and fragments generated from explosions, collisions, or faulty payload assembly.

Loading next visibility...
Identifier
37580, 1999-025EKD
Orbit
SSO
Country
Flag of CNCN / PRC
Related business
Manufacturer
Unknown
Mission
Spacecraft
Bus & Motor
Unknown
Mass
Unknown
Launch date (UTC)
1999-05-10 (27 years ago)
Launch vehicle
Unknown
Launch site
Taiyaun Space Center, China (TSC)
Object type
Payload
Rocket body
Debris
Shape & HBR
Unknown shape, 0.1 m
Radar Cross Section
Small (<0.1 m²)

Expand to show TLE details & history
Last TLE update: 19 hours ago

TLE from 19 hours ago
0 CZ-4B DEB
1 37580U 99025EKD 25350.05809664  .00000755  00000-0  43357-3 0  9993
2 37580  98.8310  28.4934 0123948 200.6590 190.0849 14.08499980151979
Epoch: 2025-12-16T01:23Z
TLE epoch observation values (Epoch: 2025-12-16T01:23:39.549Z)
Latitude
30.15074°
Longitude
-82.51984°
Altitude
956.704 km
Speed
7.331 km/s
True Right ascension
01h 33m 22s
True Declination
30° 00' 20"
Sunlit
Object was in full shadow at epoch
Visualization orbit readout
Latitude
Unknown
Longitude
Unknown
Altitude
Unknown
Speed
Unknown
Apparent Right ascension
Unknown
Apparent Declination
Unknown
Sunlit
N/A
Visualization observer readout
Local Sidereal Time
19:11:28
Azimuth
Unknown
Elevation
Unknown
Doppler factor
Unknown
Orbital elements
Apogee altitude
951.425 km
Perigee altitude
771.952 km
Semi-major axis
7,239.825 km
Eccentricity
0.01239
Inclination
98.831°
RAAN
28.4934°
Arg. of periapsis
200.659°
True anomaly
189.83993°
Mean anomaly
190.0849°
Eccentric anomaly
189.96204°
Mean motion
3.52331 °/min
Orbital period
102.18 mins
BSTAR
0.00043357
Loading maneuver chart data...
Computing Atmospheric mass density...

Documentation

Showing up to 5 results
|